Location: G�ppingen
(48.7089°N, 9.6563°E)
Time: 14:39:34
(UTC+02:00)

ISS - Pass Details

Date: 04 January 2018
Orbit: 402 x 408 km, 51.6° (Epoch: 16 July)

Event Time Altitude Azimuth Distance (km) Brightness Sun altitude
Exits shadow 05:33:51 28° 65° (ENE) 828 -1.8 -25.3°
Drops below altitude 10° 05:35:34 10° 69° (ENE) 1,501 -0.1 -25.1°
Enters shadow 06:31:24 -69° 261° (W) 12,365 3.6 -16.1°
